{"data":{"norad_id":43819,"epoch":"2026-05-25T02:18:20.531808Z","epoch_age_seconds":73587,"freshness":"FRESH","line1":"1 43819U 18099BP  26145.09607097  .00001615  00000+0  11326-3 0  9996","line2":"2 43819  97.3984 184.7764 0020081  72.5338 287.8083 15.06386338408273","mean_motion":15.06386338,"eccentricity":0.0020081,"inclination_deg":97.3984,"raan_deg":184.7764,"arg_perigee_deg":72.5338,"mean_anomaly_deg":287.8083,"bstar":0.00011326,"rev_number":40827,"period_min":95.593007163877,"perigee_km":533.34655379393,"apogee_km":561.16030684017,"semimajor_km":6925.390430317,"source":"CELESTRAK","updated_at":"2026-05-25T13:37:55.902164Z"}}